Time,TemperatureF,DewpointF,PressureIn,WindDirection,WindDirectionDegrees,WindSpeedMPH,WindSpeedGustMPH,Humidity,HourlyPrecipIn,Conditions,Clouds,dailyrainin,SoftwareType,DateUTC
2013-06-11 00:02:00,65.0,19.0,29.86,North,-999,-999.0,-999.0,17,-99.99,,,-99.99,,2013-06-11 06:02:00,
2013-06-11 00:12:00,64.0,18.0,29.86,North,-999,-999.0,-999.0,17,-99.99,,,-99.99,,2013-06-11 06:12:00,
2013-06-11 00:22:00,64.0,20.0,29.87,North,-999,-999.0,-999.0,18,-99.99,,,-99.99,,2013-06-11 06:22:00,
2013-06-11 00:32:00,63.0,19.0,29.86,North,-999,-999.0,-999.0,18,-99.99,,,-99.99,,2013-06-11 06:32:00,
2013-06-11 00:42:00,63.0,19.0,29.86,North,-999,-999.0,-999.0,18,-99.99,,,-99.99,,2013-06-11 06:42:00,
2013-06-11 00:52:00,63.0,19.0,29.86,North,-999,-999.0,-999.0,18,-99.99,,,-99.99,,2013-06-11 06:52:00,
2013-06-11 01:02:00,63.0,19.0,29.86,North,-999,-999.0,-999.0,18,-99.99,,,-99.99,,2013-06-11 07:02:00,
2013-06-11 01:12:00,64.0,18.0,29.86,North,-999,-999.0,-999.0,17,-99.99,,,-99.99,,2013-06-11 07:12:00,
2013-06-11 01:22:00,62.0,23.0,29.86,North,-999,-999.0,-999.0,22,-99.99,,,-99.99,,2013-06-11 07:22:00,
2013-06-11 01:32:00,62.0,23.0,29.86,North,-999,-999.0,-999.0,22,-99.99,,,-99.99,,2013-06-11 07:32:00,
2013-06-11 01:42:00,57.0,22.0,29.86,North,-999,-999.0,-999.0,26,-99.99,,,-99.99,,2013-06-11 07:42:00,
2013-06-11 01:52:00,59.0,20.0,29.86,North,-999,-999.0,-999.0,22,-99.99,,,-99.99,,2013-06-11 07:52:00,
2013-06-11 02:02:00,59.0,20.0,29.86,North,-999,-999.0,-999.0,22,-99.99,,,-99.99,,2013-06-11 08:02:00,
2013-06-11 02:12:00,58.0,20.0,29.86,North,-999,-999.0,-999.0,23,-99.99,,,-99.99,,2013-06-11 08:12:00,
2013-06-11 02:22:00,57.0,22.0,29.86,North,-999,-999.0,-999.0,25,-99.99,,,-99.99,,2013-06-11 08:22:00,
2013-06-11 02:32:00,57.0,22.0,29.86,North,-999,-999.0,-999.0,25,-99.99,,,-99.99,,2013-06-11 08:32:00,
2013-06-11 02:42:00,57.0,22.0,29.86,North,-999,-999.0,-999.0,25,-99.99,,,-99.99,,2013-06-11 08:42:00,
2013-06-11 02:52:00,56.0,22.0,29.86,North,-999,-999.0,-999.0,26,-99.99,,,-99.99,,2013-06-11 08:52:00,
2013-06-11 03:02:00,56.0,22.0,29.86,North,-999,-999.0,-999.0,26,-99.99,,,-99.99,,2013-06-11 09:02:00,
2013-06-11 03:12:00,55.0,23.0,29.86,North,-999,-999.0,-999.0,28,-99.99,,,-99.99,,2013-06-11 09:12:00,
2013-06-11 03:22:00,55.0,21.0,29.86,North,-999,-999.0,-999.0,26,-99.99,,,-99.99,,2013-06-11 09:22:00,
2013-06-11 03:33:00,55.0,22.0,29.86,North,-999,-999.0,-999.0,27,-99.99,,,-99.99,,2013-06-11 09:33:00,
2013-06-11 03:43:00,55.0,22.0,29.86,North,-999,-999.0,-999.0,27,-99.99,,,-99.99,,2013-06-11 09:43:00,
2013-06-11 03:53:00,54.0,23.0,29.86,North,-999,-999.0,-999.0,30,-99.99,,,-99.99,,2013-06-11 09:53:00,
2013-06-11 04:03:00,54.0,23.0,29.86,North,-999,-999.0,-999.0,30,-99.99,,,-99.99,,2013-06-11 10:03:00,
2013-06-11 04:12:00,54.0,22.0,29.86,North,-999,-999.0,-999.0,29,-99.99,,,-99.99,,2013-06-11 10:12:00,
2013-06-11 04:22:00,53.0,23.0,29.86,North,-999,-999.0,-999.0,31,-99.99,,,-99.99,,2013-06-11 10:22:00,
2013-06-11 04:33:00,50.0,24.0,29.86,North,-999,-999.0,-999.0,36,-99.99,,,-99.99,,2013-06-11 10:33:00,
2013-06-11 04:42:00,50.0,24.0,29.86,North,-999,-999.0,-999.0,36,-99.99,,,-99.99,,2013-06-11 10:42:00,
2013-06-11 04:52:00,50.0,23.0,29.86,North,-999,-999.0,-999.0,35,-99.99,,,-99.99,,2013-06-11 10:52:00,
2013-06-11 05:02:00,50.0,23.0,29.86,North,-999,-999.0,-999.0,35,-99.99,,,-99.99,,2013-06-11 11:02:00,
2013-06-11 05:12:00,50.0,24.0,29.86,North,-999,-999.0,-999.0,36,-99.99,,,-99.99,,2013-06-11 11:12:00,
2013-06-11 05:22:00,50.0,25.0,29.86,North,-999,-999.0,-999.0,37,-99.99,,,-99.99,,2013-06-11 11:22:00,
2013-06-11 05:32:00,50.0,25.0,29.86,North,-999,-999.0,-999.0,37,-99.99,,,-99.99,,2013-06-11 11:32:00,
2013-06-11 05:41:00,50.0,25.0,29.86,North,-999,-999.0,-999.0,37,-99.99,,,-99.99,,2013-06-11 11:41:00,
2013-06-11 05:52:00,50.0,25.0,29.86,North,-999,-999.0,-999.0,37,-99.99,,,-99.99,,2013-06-11 11:52:00,
2013-06-11 06:02:00,50.0,25.0,29.86,North,-999,-999.0,-999.0,37,-99.99,,,-99.99,,2013-06-11 12:02:00,
2013-06-11 06:12:00,49.0,25.0,29.87,North,-999,-999.0,-999.0,39,-99.99,,,-99.99,,2013-06-11 12:12:00,
2013-06-11 06:22:00,49.0,25.0,29.87,North,-999,-999.0,-999.0,39,-99.99,,,-99.99,,2013-06-11 12:22:00,
2013-06-11 06:32:00,49.0,25.0,29.87,North,-999,-999.0,-999.0,39,-99.99,,,-99.99,,2013-06-11 12:32:00,
2013-06-11 06:42:00,50.0,26.0,29.87,North,-999,-999.0,-999.0,39,-99.99,,,-99.99,,2013-06-11 12:42:00,
2013-06-11 06:52:00,49.0,28.0,29.87,North,-999,-999.0,-999.0,44,-99.99,,,-99.99,,2013-06-11 12:52:00,
2013-06-11 07:02:00,49.0,28.0,29.87,North,-999,-999.0,-999.0,44,-99.99,,,-99.99,,2013-06-11 13:02:00,
2013-06-11 07:11:00,49.0,29.0,29.87,North,-999,-999.0,-999.0,46,-99.99,,,-99.99,,2013-06-11 13:11:00,
2013-06-11 07:22:00,50.0,31.0,29.88,North,-999,-999.0,-999.0,48,-99.99,,,-99.99,,2013-06-11 13:22:00,
2013-06-11 07:32:00,49.0,33.0,29.88,North,-999,-999.0,-999.0,54,-99.99,,,-99.99,,2013-06-11 13:32:00,
2013-06-11 07:42:00,49.0,33.0,29.88,North,-999,-999.0,-999.0,54,-99.99,,,-99.99,,2013-06-11 13:42:00,
2013-06-11 07:52:00,49.0,33.0,29.88,North,-999,-999.0,-999.0,54,-99.99,,,-99.99,,2013-06-11 13:52:00,
2013-06-11 08:02:00,49.0,33.0,29.88,North,-999,-999.0,-999.0,54,-99.99,,,-99.99,,2013-06-11 14:02:00,
2013-06-11 08:12:00,49.0,30.0,29.88,North,-999,-999.0,-999.0,48,-99.99,,,-99.99,,2013-06-11 14:12:00,
2013-06-11 08:22:00,51.0,32.0,29.88,North,-999,-999.0,-999.0,48,-99.99,,,-99.99,,2013-06-11 14:22:00,
2013-06-11 08:32:00,52.0,33.0,29.88,North,-999,-999.0,-999.0,48,-99.99,,,-99.99,,2013-06-11 14:32:00,
2013-06-11 08:42:00,52.0,33.0,29.88,North,-999,-999.0,-999.0,48,-99.99,,,-99.99,,2013-06-11 14:42:00,
2013-06-11 08:53:00,53.0,35.0,29.88,North,-999,-999.0,-999.0,51,-99.99,,,-99.99,,2013-06-11 14:53:00,
2013-06-11 09:02:00,53.0,35.0,29.88,North,-999,-999.0,-999.0,51,-99.99,,,-99.99,,2013-06-11 15:02:00,
2013-06-11 09:12:00,53.0,36.0,29.88,North,-999,-999.0,-999.0,53,-99.99,,,-99.99,,2013-06-11 15:12:00,
2013-06-11 09:22:00,53.0,37.0,29.88,North,-999,-999.0,-999.0,54,-99.99,,,-99.99,,2013-06-11 15:22:00,
2013-06-11 09:32:00,53.0,37.0,29.88,North,-999,-999.0,-999.0,54,-99.99,,,-99.99,,2013-06-11 15:32:00,
2013-06-11 09:42:00,54.0,39.0,29.88,North,-999,-999.0,-999.0,56,-99.99,,,-99.99,,2013-06-11 15:42:00,
2013-06-11 09:53:00,55.0,40.0,29.88,North,-999,-999.0,-999.0,56,-99.99,,,-99.99,,2013-06-11 15:53:00,
2013-06-11 10:02:00,55.0,40.0,29.88,North,-999,-999.0,-999.0,56,-99.99,,,-99.99,,2013-06-11 16:02:00,
2013-06-11 10:12:00,57.0,40.0,29.88,North,-999,-999.0,-999.0,53,-99.99,,,-99.99,,2013-06-11 16:12:00,
2013-06-11 10:22:00,57.0,40.0,29.88,North,-999,-999.0,-999.0,53,-99.99,,,-99.99,,2013-06-11 16:22:00,
2013-06-11 10:32:00,57.0,40.0,29.88,North,-999,-999.0,-999.0,53,-99.99,,,-99.99,,2013-06-11 16:32:00,
2013-06-11 10:42:00,62.0,37.0,29.88,North,-999,-999.0,-999.0,40,-99.99,,,-99.99,,2013-06-11 16:42:00,
2013-06-11 10:52:00,62.0,37.0,29.88,North,-999,-999.0,-999.0,40,-99.99,,,-99.99,,2013-06-11 16:52:00,
2013-06-11 11:02:00,62.0,37.0,29.88,North,-999,-999.0,-999.0,40,-99.99,,,-99.99,,2013-06-11 17:02:00,
2013-06-11 11:12:00,67.0,35.0,29.89,North,-999,-999.0,-999.0,31,-99.99,,,-99.99,,2013-06-11 17:12:00,
2013-06-11 11:22:00,68.0,35.0,29.90,North,-999,-999.0,-999.0,30,-99.99,,,-99.99,,2013-06-11 17:22:00,
2013-06-11 11:32:00,70.0,36.0,29.90,North,-999,-999.0,-999.0,29,-99.99,,,-99.99,,2013-06-11 17:32:00,
2013-06-11 11:42:00,70.0,36.0,29.90,North,-999,-999.0,-999.0,29,-99.99,,,-99.99,,2013-06-11 17:42:00,
2013-06-11 11:52:00,68.0,35.0,29.91,North,-999,-999.0,-999.0,29,-99.99,,,-99.99,,2013-06-11 17:52:00,
2013-06-11 12:02:00,68.0,35.0,29.91,North,-999,-999.0,-999.0,29,-99.99,,,-99.99,,2013-06-11 18:02:00,
2013-06-11 12:12:00,67.0,35.0,29.91,North,-999,-999.0,-999.0,31,-99.99,,,-99.99,,2013-06-11 18:12:00,
2013-06-11 12:22:00,66.0,35.0,29.92,North,-999,-999.0,-999.0,32,-99.99,,,-99.99,,2013-06-11 18:22:00,
2013-06-11 12:32:00,66.0,35.0,29.92,North,-999,-999.0,-999.0,32,-99.99,,,-99.99,,2013-06-11 18:32:00,
2013-06-11 12:42:00,68.0,37.0,29.92,North,-999,-999.0,-999.0,32,-99.99,,,-99.99,,2013-06-11 18:42:00,
2013-06-11 12:52:00,68.0,37.0,29.92,North,-999,-999.0,-999.0,32,-99.99,,,-99.99,,2013-06-11 18:52:00,
2013-06-11 13:01:00,68.0,37.0,29.92,North,-999,-999.0,-999.0,32,-99.99,,,-99.99,,2013-06-11 19:01:00,
2013-06-11 13:12:00,66.0,38.0,29.93,North,-999,-999.0,-999.0,35,-99.99,,,-99.99,,2013-06-11 19:12:00,
2013-06-11 13:22:00,68.0,39.0,29.93,North,-999,-999.0,-999.0,34,-99.99,,,-99.99,,2013-06-11 19:22:00,
2013-06-11 13:32:00,68.0,39.0,29.93,North,-999,-999.0,-999.0,34,-99.99,,,-99.99,,2013-06-11 19:32:00,
2013-06-11 13:42:00,69.0,35.0,29.94,North,-999,-999.0,-999.0,28,-99.99,,,-99.99,,2013-06-11 19:42:00,
2013-06-11 13:52:00,69.0,35.0,29.94,North,-999,-999.0,-999.0,28,-99.99,,,-99.99,,2013-06-11 19:52:00,
2013-06-11 14:02:00,69.0,35.0,29.94,North,-999,-999.0,-999.0,28,-99.99,,,-99.99,,2013-06-11 20:02:00,
2013-06-11 14:12:00,72.0,35.0,29.94,North,-999,-999.0,-999.0,26,-99.99,,,-99.99,,2013-06-11 20:12:00,
2013-06-11 14:22:00,70.0,33.0,29.94,North,-999,-999.0,-999.0,25,-99.99,,,-99.99,,2013-06-11 20:22:00,
2013-06-11 14:32:00,70.0,33.0,29.94,North,-999,-999.0,-999.0,25,-99.99,,,-99.99,,2013-06-11 20:32:00,
2013-06-11 14:42:00,68.0,33.0,29.94,North,-999,-999.0,-999.0,27,-99.99,,,-99.99,,2013-06-11 20:42:00,
2013-06-11 14:52:00,68.0,33.0,29.94,North,-999,-999.0,-999.0,27,-99.99,,,-99.99,,2013-06-11 20:52:00,
2013-06-11 15:02:00,68.0,33.0,29.94,North,-999,-999.0,-999.0,27,-99.99,,,-99.99,,2013-06-11 21:02:00,
2013-06-11 15:12:00,66.0,39.0,29.94,North,-999,-999.0,-999.0,37,-99.99,,,-99.99,,2013-06-11 21:12:00,
2013-06-11 15:22:00,70.0,39.0,29.94,North,-999,-999.0,-999.0,32,-99.99,,,-99.99,,2013-06-11 21:22:00,
2013-06-11 15:33:00,70.0,39.0,29.94,North,-999,-999.0,-999.0,32,-99.99,,,-99.99,,2013-06-11 21:33:00,
2013-06-11 15:42:00,72.0,35.0,29.94,North,-999,-999.0,-999.0,26,-99.99,,,-99.99,,2013-06-11 21:42:00,
2013-06-11 15:53:00,72.0,35.0,29.94,North,-999,-999.0,-999.0,26,-99.99,,,-99.99,,2013-06-11 21:53:00,
2013-06-11 16:03:00,72.0,35.0,29.94,North,-999,-999.0,-999.0,26,-99.99,,,-99.99,,2013-06-11 22:03:00,
2013-06-11 16:12:00,72.0,34.0,29.94,North,-999,-999.0,-999.0,25,-99.99,,,-99.99,,2013-06-11 22:12:00,
2013-06-11 16:22:00,72.0,34.0,29.94,North,-999,-999.0,-999.0,25,-99.99,,,-99.99,,2013-06-11 22:22:00,
2013-06-11 16:32:00,71.0,32.0,29.95,North,-999,-999.0,-999.0,24,-99.99,,,-99.99,,2013-06-11 22:32:00,
2013-06-11 16:42:00,71.0,32.0,29.95,North,-999,-999.0,-999.0,24,-99.99,,,-99.99,,2013-06-11 22:42:00,
2013-06-11 16:52:00,71.0,32.0,29.95,North,-999,-999.0,-999.0,24,-99.99,,,-99.99,,2013-06-11 22:52:00,
2013-06-11 17:02:00,71.0,32.0,29.95,North,-999,-999.0,-999.0,24,-99.99,,,-99.99,,2013-06-11 23:02:00,
2013-06-11 17:12:00,71.0,32.0,29.95,North,-999,-999.0,-999.0,24,-99.99,,,-99.99,,2013-06-11 23:12:00,
2013-06-11 17:22:00,71.0,32.0,29.96,North,-999,-999.0,-999.0,24,-99.99,,,-99.99,,2013-06-11 23:22:00,
2013-06-11 17:32:00,71.0,32.0,29.96,North,-999,-999.0,-999.0,24,-99.99,,,-99.99,,2013-06-11 23:32:00,
2013-06-11 17:42:00,69.0,33.0,29.96,North,-999,-999.0,-999.0,26,-99.99,,,-99.99,,2013-06-11 23:42:00,
2013-06-11 17:52:00,68.0,34.0,29.96,North,-999,-999.0,-999.0,28,-99.99,,,-99.99,,2013-06-11 23:52:00,
2013-06-11 18:02:00,68.0,34.0,29.96,North,-999,-999.0,-999.0,28,-99.99,,,-99.99,,2013-06-12 00:02:00,
2013-06-11 18:12:00,68.0,33.0,29.96,North,-999,-999.0,-999.0,27,-99.99,,,-99.99,,2013-06-12 00:12:00,
2013-06-11 18:22:00,68.0,33.0,29.96,North,-999,-999.0,-999.0,27,-99.99,,,-99.99,,2013-06-12 00:22:00,
2013-06-11 18:32:00,68.0,33.0,29.96,North,-999,-999.0,-999.0,27,-99.99,,,-99.99,,2013-06-12 00:32:00,
2013-06-11 18:42:00,68.0,33.0,29.96,North,-999,-999.0,-999.0,27,-99.99,,,-99.99,,2013-06-12 00:42:00,
2013-06-11 18:52:00,68.0,35.0,29.96,North,-999,-999.0,-999.0,29,-99.99,,,-99.99,,2013-06-12 00:52:00,
2013-06-11 19:02:00,68.0,35.0,29.96,North,-999,-999.0,-999.0,29,-99.99,,,-99.99,,2013-06-12 01:02:00,
2013-06-11 19:12:00,68.0,35.0,29.96,North,-999,-999.0,-999.0,29,-99.99,,,-99.99,,2013-06-12 01:12:00,
2013-06-11 19:22:00,67.0,35.0,29.96,North,-999,-999.0,-999.0,31,-99.99,,,-99.99,,2013-06-12 01:22:00,
2013-06-11 19:32:00,67.0,35.0,29.96,North,-999,-999.0,-999.0,31,-99.99,,,-99.99,,2013-06-12 01:32:00,
2013-06-11 19:42:00,67.0,36.0,29.96,North,-999,-999.0,-999.0,32,-99.99,,,-99.99,,2013-06-12 01:42:00,
2013-06-11 19:52:00,66.0,38.0,29.97,North,-999,-999.0,-999.0,35,-99.99,,,-99.99,,2013-06-12 01:52:00,
2013-06-11 20:02:00,66.0,38.0,29.97,North,-999,-999.0,-999.0,35,-99.99,,,-99.99,,2013-06-12 02:02:00,
2013-06-11 20:12:00,65.0,39.0,29.97,North,-999,-999.0,-999.0,38,-99.99,,,-99.99,,2013-06-12 02:12:00,
2013-06-11 20:22:00,64.0,39.0,29.98,North,-999,-999.0,-999.0,39,-99.99,,,-99.99,,2013-06-12 02:22:00,
2013-06-11 20:32:00,64.0,39.0,29.98,North,-999,-999.0,-999.0,39,-99.99,,,-99.99,,2013-06-12 02:32:00,
2013-06-11 20:42:00,63.0,38.0,29.98,North,-999,-999.0,-999.0,40,-99.99,,,-99.99,,2013-06-12 02:42:00,
2013-06-11 20:52:00,63.0,40.0,29.98,North,-999,-999.0,-999.0,42,-99.99,,,-99.99,,2013-06-12 02:52:00,
2013-06-11 21:01:00,63.0,40.0,29.98,North,-999,-999.0,-999.0,42,-99.99,,,-99.99,,2013-06-12 03:01:00,
2013-06-11 21:12:00,61.0,40.0,29.99,North,-999,-999.0,-999.0,46,-99.99,,,-99.99,,2013-06-12 03:12:00,
2013-06-11 21:22:00,60.0,39.0,29.99,North,-999,-999.0,-999.0,45,-99.99,,,-99.99,,2013-06-12 03:22:00,
2013-06-11 21:32:00,60.0,39.0,29.99,North,-999,-999.0,-999.0,45,-99.99,,,-99.99,,2013-06-12 03:32:00,
2013-06-11 21:42:00,60.0,39.0,29.99,North,-999,-999.0,-999.0,45,-99.99,,,-99.99,,2013-06-12 03:42:00,
2013-06-11 21:53:00,60.0,39.0,29.99,North,-999,-999.0,-999.0,45,-99.99,,,-99.99,,2013-06-12 03:53:00,
2013-06-11 22:02:00,60.0,39.0,29.99,North,-999,-999.0,-999.0,45,-99.99,,,-99.99,,2013-06-12 04:02:00,
2013-06-11 22:12:00,58.0,38.0,30.00,North,-999,-999.0,-999.0,48,-99.99,,,-99.99,,2013-06-12 04:12:00,
2013-06-11 22:23:00,58.0,39.0,30.01,North,-999,-999.0,-999.0,49,-99.99,,,-99.99,,2013-06-12 04:23:00,
2013-06-11 22:33:00,58.0,39.0,30.01,North,-999,-999.0,-999.0,49,-99.99,,,-99.99,,2013-06-12 04:33:00,
2013-06-11 22:42:00,56.0,38.0,30.02,North,-999,-999.0,-999.0,51,-99.99,,,-99.99,,2013-06-12 04:42:00,
2013-06-11 22:52:00,55.0,38.0,30.02,North,-999,-999.0,-999.0,53,-99.99,,,-99.99,,2013-06-12 04:52:00,
2013-06-11 23:02:00,55.0,38.0,30.02,North,-999,-999.0,-999.0,53,-99.99,,,-99.99,,2013-06-12 05:02:00,
2013-06-11 23:12:00,56.0,38.0,30.03,North,-999,-999.0,-999.0,50,-99.99,,,-99.99,,2013-06-12 05:12:00,
2013-06-11 23:22:00,57.0,37.0,30.02,North,-999,-999.0,-999.0,47,-99.99,,,-99.99,,2013-06-12 05:22:00,
2013-06-11 23:32:00,57.0,37.0,30.02,North,-999,-999.0,-999.0,47,-99.99,,,-99.99,,2013-06-12 05:32:00,
2013-06-11 23:42:00,57.0,38.0,30.02,North,-999,-999.0,-999.0,48,-99.99,,,-99.99,,2013-06-12 05:42:00,
2013-06-11 23:52:00,57.0,38.0,30.03,North,-999,-999.0,-999.0,48,-99.99,,,-99.99,,2013-06-12 05:52:00,